Location: Poughquag
(41.6090°N, 73.6820°W)
Time: 22:06:23
(UTC-05:00)

N. Korean satellite - Pass Details

Date: 26 January 2021
Orbit: 451 x 503 km, 97.2° (Epoch: 24 February)

Event Time Altitude Azimuth Distance (km) Brightness Sun altitude
Rises 17:42:47 0° 214° (SW) 2,579 11.2 -7.7°
Reaches altitude 10° 17:46:12 10° 249° (WSW) 1,694 11.0 -8.3°
Maximum altitude 17:47:27 11° 269° (W) 1,602 10.6 -8.5°
Drops below altitude 10° 17:48:42 10° 289° (WNW) 1,691 10.2 -8.8°
Sets 17:52:07 0° 324° (NW) 2,566 10.5 -9.4°
